JIA5111 KDCA-KRDU

Flight info

Callsign JIA5111
Flight time N/A
Altitude 20000
Route JDUBB4 MELTN ALDAN4
Aircraft CRJ9/M-SDFGIRWY/S

Departure

Time 2026-05-01 15:31
Airport Ronald Reagan Washington National Airport (KDCA)

Arrival

Time N/A
Airport Raleigh-Durham International Airport (KRDU)
Time Latitude Longitude Altitude Speed Heading
2026-05-01 14:51 38.85837 -77.04501 22 ft 0 kts 178°
2026-05-01 15:12 38.85849 -77.04501 24 ft 4 kts 178°
2026-05-01 15:12 38.85903 -77.04504 25 ft 4 kts 178°
2026-05-01 15:12 38.85927 -77.04505 24 ft 1 kts 178°
2026-05-01 15:22 38.85918 -77.04503 23 ft 4 kts 168°
2026-05-01 15:23 38.85896 -77.04483 24 ft 5 kts 122°
2026-05-01 15:23 38.85893 -77.04437 22 ft 6 kts 78°
2026-05-01 15:23 38.85907 -77.04384 24 ft 7 kts 67°
2026-05-01 15:23 38.85918 -77.04323 22 ft 7 kts 92°
2026-05-01 15:24 38.85896 -77.04270 23 ft 7 kts 137°
2026-05-01 15:24 38.85856 -77.04227 23 ft 8 kts 142°
2026-05-01 15:24 38.85808 -77.04181 23 ft 9 kts 143°
2026-05-01 15:24 38.85755 -77.04130 23 ft 10 kts 143°
2026-05-01 15:25 38.85699 -77.04075 23 ft 11 kts 143°
2026-05-01 15:25 38.85637 -77.04016 23 ft 12 kts 142°
2026-05-01 15:25 38.85565 -77.03964 23 ft 12 kts 166°
2026-05-01 15:25 38.85476 -77.03949 22 ft 13 kts 175°
2026-05-01 15:26 38.85380 -77.03939 22 ft 14 kts 175°
2026-05-01 15:26 38.85277 -77.03928 22 ft 15 kts 176°
2026-05-01 15:26 38.85179 -77.03919 22 ft 14 kts 175°
2026-05-01 15:26 38.85079 -77.03908 22 ft 15 kts 175°
2026-05-01 15:27 38.84973 -77.03897 22 ft 16 kts 176°
2026-05-01 15:27 38.84861 -77.03888 25 ft 16 kts 175°
2026-05-01 15:27 38.84747 -77.03875 22 ft 17 kts 175°
2026-05-01 15:28 38.84510 -77.03851 23 ft 18 kts 175°
2026-05-01 15:28 38.84386 -77.03840 23 ft 18 kts 175°
2026-05-01 15:28 38.84277 -77.03827 23 ft 9 kts 172°
2026-05-01 15:29 38.84181 -77.03716 24 ft 9 kts 115°
2026-05-01 15:29 38.84183 -77.03689 22 ft 3 kts 43°
2026-05-01 15:29 38.84205 -77.03682 24 ft 0 kts 354°
2026-05-01 15:30 38.84691 -77.03733 22 ft 105 kts 356°
2026-05-01 15:31 38.88769 -77.06200 2199 ft 190 kts 302°
2026-05-01 15:31 38.90073 -77.09341 3609 ft 213 kts 284°
2026-05-01 15:32 38.91017 -77.12894 5230 ft 217 kts 303°
2026-05-01 15:32 38.93138 -77.15451 6535 ft 218 kts 317°
2026-05-01 15:33 38.96169 -77.19496 8016 ft 229 kts 295°
2026-05-01 15:34 38.94900 -77.25034 9593 ft 233 kts 221°